Vertical_Velocity
-1 -0 0 0 0 1 1 -1 -0 -0 0 0 1 -4 2 1 4 1 2 1 -1 -3 4 -2 -2 5 2 4 9 2 1 3 -0 0 4 -1 3 0 0 3 0 1 -3
-1 -1 -0 -0 1 0 1 1 0 0 0 1 3 5 -3 -1 1 7 -0 2 -1 -1 4 -0 4 2 7 2 8 -1 9 5 5 -7 -7 2 2 -0 3 3 4 -1 -1
1 -0 -1 -1 -1 -1 -1 -1 -1 -2 -1 -1 -2 -2 -1 -1 1 1 3 0 2 -1 3 -3 1 -3 6 23 12 16 6 6 2 -5 1 -4 7 2 -1 -0 1 -1 3
2 1 -1 -0 -1 -1 -1 -1 -1 -2 -2 0 0 0 0 3 1 0 1 2 -3 2 4 -4 4 0 -3 -4 -0 2 -0 2 -1 2 2 2 -0 -0 9 1 1 2 -0
0 1 1 0 1 -0 -2 -2 0 -1 -3 -2 0 1 0 0 0 1 2 1 -0 -0 3 -1 -3 1 4 -0 -4 1 -5 2 2 -4 -3 -1 -2 1 -0 -0 -1 -2 -1
-1 1 0 1 1 -1 -2 4 -3 0 -0 -2 -0 -1 -0 0 1 0 -0 3 2 2 3 0 0 3 3 1 -6 7 2 3 -1 -4 -1 -4 2 1 -1 -0 -1 -1 2
-1 -1 1 -0 1 4 -1 -5 5 -3 -2 -1 -1 -0 -0 -1 -1 -0 1 1 2 2 0 -1 1 -2 1 3 1 -0 -3 1 2 -1 -2 1 -2 1 -1 12 4 -5 5
-0 -1 -0 -1 0 3 3 6 -0 1 -3 -0 -1 -0 -1 0 0 -0 -0 -0 -1 -1 -1 1 3 3 0 -0 -7 2 1 -0 -2 -2 -2 1 3 -3 4 -8 6 -3 -2
-2 -2 -1 -0 -0 -1 1 2 3 -0 1 -2 -1 -2 -0 -1 1 -0 -1 -1 -0 0 1 0 0 1 2 1 1 -2 -1 1 -0 -0 1 -4 -1 -0 1 1 -3 1 0
-2 -2 -2 -1 -0 0 2 -1 -2 -1 2 0 -0 -1 -1 2 -0 1 0 -0 -0 0 -0 -1 -1 -0 0 0 -0 0 1 1 2 1 -1 -0 -4 -1 2 -2 1 1 -0
-0 -1 -1 -1 -1 -2 -1 0 -1 -2 -1 -2 1 -1 -1 -0 1 1 1 1 1 1 1 1 1 0 0 0 -0 0 1 -0 -1 -2 -1 -3 1 2 3 4 2 1 -3
1 0 -2 1 1 -1 -1 -0 1 -0 -1 -1 -1 -1 -2 -1 -0 -0 -0 -1 -0 -0 -1 -0 -0 -1 -0 0 1 1 -0 -1 -1 -1 -3 -0 2 4 -2 -2 0 -0 1
1 -0 -0 -1 -0 1 -1 -1 1 1 0 0 1 1 0 0 0 1 0 -0 -0 -1 -1 -1 -0 0 -1 -1 -2 -0 1 1 0 -0 -1 -1 0 -0 -1 -2 -1 1 0
0 1 0 1 1 0 2 1 0 1 1 1 1 2 1 1 1 1 1 0 -0 0 0 0 -0 -1 -1 -1 -0 -0 -2 -1 -0 -0 -1 1 -1 -1 -1 -0 -1 -1 1
1 2 0 1 1 1 1 1 2 1 -0 0 0 0 0 0 0 0 0 1 1 1 0 -0 -0 0 -0 -0 -1 -0 -1 -2 -2 -1 -0 0 -1 -2 -2 -1 -1 -1 -1
2 2 2 1 1 2 2 1 -0 0 0 0 -0 0 -0 -0 1 -1 -0 -1 -0 1 1 0 0 0 0 0 -0 -1 -1 -1 -1 -1 0 -0 -1 -1 -0 0 0 -1 0
2 2 2 1 1 2 2 0 -1 -0 1 1 0 -1 -1 -1 -1 -0 -1 -1 -1 -0 -1 0 -0 0 -1 -1 -0 1 0 1 0 -1 -2 -1 -1 -2 -2 -1 -1 -0 1
1 1 1 1 2 1 1 1 0 1 0 -0 0 1 -1 0 -2 -1 -1 -1 -1 -1 0 -0 0 -1 -1 -2 -0 -0 1 1 0 -0 -1 0 0 -1 -1 -1 -2 -4 3
-0 -0 -1 -0 0 1 -0 -1 -1 -1 -0 0 0 1 0 1 -0 -0 0 -0 1 -0 -0 -1 -1 -1 -0 -0 0 -0 1 -0 -0 0 -1 -1 -1 -2 0 -1 -0 -2 -2
-0 -1 -1 -1 -1 -1 -1 -1 -1 -1 -2 -2 -0 0 0 1 -0 0 1 -1 -1 0 -0 1 0 -1 -0 -0 -1 -1 -0 1 -0 -0 -0 -0 -1 -1 -1 -1 0 2 -2
0 -1 -1 -0 1 -0 -0 -1 -1 -1 -1 -1 -2 -0 -0 0 -0 -0 -0 -0 -1 -1 -1 0 -1 -1 -2 -2 -1 -0 -1 -2 -3 -2 -3 -0 2 2 -3 -1 -1 -2 -0
-0 -0 -0 0 1 0 -0 -1 -1 0 1 0 1 1 0 0 -0 2 -1 -2 -1 -2 -3 -1 -1 -0 -0 -1 -2 -2 -1 -1 1 -5 -4 -1 0 -0 -2 -2 -1 -1 -0
-1 0 0 1 1 -0 -0 0 1 1 -0 -0 -1 -1 -1 -1 -0 -2 -3 -1 -0 -0 1 -3 -0 -3 2 -2 -1 -2 -2 -1 -0 -3 -3 6 -4 1 -5 -1 -1 -0 -2
-1 1 1 -0 -0 1 -0 -2 2 -1 -0 -1 -0 -1 -2 -1 -2 -1 -1 -0 -1 -0 -2 -4 1 1 -1 -0 -0 -1 -2 -3 -2 -2 -5 -1 -0 1 -2 -2 -1 -1 -1
-0 1 0 -1 -0 1 0 -1 1 3 -0 -1 -1 -2 -1 -0 -2 -2 -0 2 -0 4 -3 -2 -3 -2 -0 -1 1 -3 2 -4 -1 0 -1 -8 3 -3 -2 4 -2 -2 -1
-2 -1 -1 0 0 -0 -1 -2 -2 -1 -0 -1 -0 -1 -1 -1 -1 0 -3 -2 0 6 -2 -0 -1 -1 -2 -1 -1 -4 -0 -2 -2 -5 5 -7 -0 -4 -4 3 1 2 1
Height
3156 3160 3164 3167 3170 3172 3175 3177 3179 3181 3183 3185 3187 3189 3191 3193 3195 3198 3200 3202 3204 3206 3208 3209 3209 3210 3211 3211 3210 3212 3214 3215 3217 3218 3219 3220 3221 3222 3223 3223 3224 3224 3226
3152 3155 3159 3163 3166 3168 3171 3173 3176 3178 3180 3182 3184 3186 3189 3191 3193 3194 3197 3200 3202 3203 3205 3206 3208 3210 3210 3209 3209 3209 3211 3213 3215 3217 3218 3219 3220 3221 3222 3222 3223 3223 3224
3148 3150 3153 3157 3161 3164 3167 3169 3171 3173 3176 3178 3181 3182 3184 3187 3189 3191 3194 3196 3197 3201 3202 3204 3204 3206 3208 3207 3209 3207 3211 3212 3214 3216 3216 3218 3219 3220 3221 3221 3221 3222 3223
3141 3145 3148 3151 3156 3159 3162 3164 3167 3169 3171 3173 3176 3178 3180 3182 3184 3187 3190 3192 3194 3197 3197 3199 3201 3202 3203 3205 3207 3208 3210 3212 3213 3214 3215 3216 3217 3218 3219 3220 3221 3222 3223
3134 3138 3141 3145 3149 3153 3156 3159 3162 3165 3167 3169 3171 3173 3175 3177 3179 3182 3184 3188 3190 3192 3193 3195 3196 3197 3197 3199 3204 3204 3206 3209 3208 3210 3212 3212 3213 3214 3215 3216 3219 3220 3220
3128 3132 3135 3138 3143 3147 3151 3153 3157 3160 3162 3165 3167 3169 3170 3172 3174 3177 3180 3182 3184 3186 3188 3190 3191 3192 3192 3194 3198 3199 3200 3203 3204 3204 3206 3208 3209 3210 3211 3213 3215 3217 3217
3123 3126 3129 3132 3137 3141 3144 3148 3150 3153 3155 3158 3161 3163 3165 3167 3169 3172 3174 3176 3179 3181 3183 3185 3186 3187 3187 3188 3192 3194 3195 3196 3198 3198 3200 3202 3203 3205 3207 3208 3211 3213 3213
3116 3119 3122 3126 3130 3135 3138 3141 3144 3147 3148 3152 3154 3157 3159 3162 3163 3165 3168 3170 3172 3175 3177 3179 3180 3181 3182 3182 3185 3188 3189 3191 3191 3192 3192 3193 3195 3197 3200 3202 3206 3206 3209
3109 3112 3116 3119 3123 3127 3131 3134 3137 3140 3143 3145 3147 3150 3152 3154 3157 3159 3161 3163 3165 3168 3170 3172 3173 3174 3174 3175 3178 3180 3182 3183 3184 3185 3185 3185 3187 3188 3192 3196 3199 3199 3201
3103 3106 3109 3113 3116 3120 3123 3126 3129 3132 3136 3139 3141 3143 3146 3148 3150 3154 3155 3157 3159 3160 3162 3164 3166 3167 3168 3169 3170 3172 3174 3175 3177 3178 3178 3177 3177 3183 3187 3187 3190 3192 3193
3097 3099 3102 3106 3109 3112 3116 3119 3122 3125 3128 3131 3134 3136 3138 3141 3143 3145 3147 3149 3151 3153 3155 3156 3158 3160 3161 3162 3163 3165 3166 3167 3168 3169 3170 3168 3170 3176 3180 3180 3181 3182 3184
3091 3093 3096 3099 3102 3106 3109 3112 3115 3118 3120 3122 3125 3127 3130 3134 3136 3138 3140 3141 3143 3145 3147 3148 3150 3152 3153 3153 3154 3156 3157 3159 3160 3160 3160 3161 3164 3167 3168 3169 3171 3173 3174
3085 3087 3089 3092 3095 3099 3102 3106 3109 3111 3114 3116 3119 3121 3123 3126 3128 3130 3132 3134 3136 3138 3140 3141 3143 3144 3144 3145 3146 3148 3149 3150 3151 3152 3153 3154 3156 3156 3158 3160 3162 3163 3165
3078 3080 3082 3086 3089 3093 3096 3100 3103 3105 3108 3110 3112 3114 3116 3118 3120 3122 3124 3126 3127 3129 3131 3133 3134 3135 3136 3137 3138 3140 3141 3142 3143 3144 3145 3146 3147 3148 3149 3150 3152 3153 3154
3071 3074 3076 3079 3083 3086 3090 3093 3095 3098 3101 3103 3105 3107 3109 3111 3113 3115 3116 3118 3119 3121 3122 3123 3125 3126 3128 3129 3130 3131 3132 3133 3134 3135 3135 3136 3137 3139 3140 3140 3142 3143 3144
3065 3068 3071 3074 3077 3080 3083 3086 3088 3091 3094 3096 3098 3100 3102 3104 3106 3107 3109 3111 3112 3113 3114 3116 3116 3117 3118 3119 3120 3121 3122 3123 3124 3125 3126 3127 3128 3129 3130 3130 3131 3132 3134
3060 3063 3066 3068 3072 3074 3077 3079 3082 3084 3086 3088 3090 3092 3094 3096 3098 3100 3101 3103 3104 3106 3106 3107 3108 3108 3110 3111 3112 3112 3113 3114 3115 3116 3116 3117 3118 3118 3120 3120 3122 3123 3124
3057 3059 3062 3065 3067 3069 3071 3074 3076 3078 3080 3082 3084 3085 3087 3088 3090 3092 3093 3095 3096 3097 3098 3099 3099 3100 3101 3102 3102 3103 3104 3105 3106 3106 3106 3107 3108 3108 3109 3110 3111 3111 3113
3053 3055 3057 3060 3063 3065 3066 3068 3070 3072 3074 3076 3077 3078 3080 3081 3082 3084 3085 3086 3087 3088 3089 3090 3091 3091 3092 3092 3093 3094 3094 3095 3096 3096 3096 3096 3097 3097 3099 3099 3100 3100 3101
3049 3051 3053 3056 3058 3059 3061 3063 3064 3066 3068 3069 3071 3072 3074 3075 3076 3077 3078 3079 3080 3081 3082 3082 3082 3083 3083 3083 3084 3085 3086 3086 3086 3086 3086 3087 3087 3087 3088 3088 3088 3088 3089
3045 3047 3049 3051 3052 3054 3055 3057 3059 3061 3063 3064 3066 3067 3068 3068 3069 3070 3071 3072 3073 3074 3074 3074 3074 3075 3075 3075 3075 3075 3076 3076 3077 3077 3077 3077 3078 3078 3078 3077 3077 3077 3078
3041 3043 3045 3046 3047 3049 3051 3053 3054 3056 3058 3059 3060 3061 3062 3062 3063 3064 3064 3065 3066 3066 3067 3067 3067 3067 3067 3067 3066 3066 3067 3067 3068 3067 3067 3068 3067 3068 3067 3067 3067 3067 3066
3037 3039 3041 3042 3043 3045 3046 3048 3049 3051 3053 3054 3054 3055 3056 3057 3057 3057 3058 3058 3058 3058 3058 3058 3059 3059 3059 3058 3058 3058 3057 3057 3058 3058 3057 3059 3058 3058 3056 3056 3055 3055 3055
3033 3035 3036 3037 3039 3040 3042 3043 3045 3046 3047 3048 3049 3049 3050 3050 3050 3050 3050 3051 3051 3050 3050 3049 3050 3050 3049 3050 3048 3048 3048 3047 3047 3047 3046 3046 3049 3047 3046 3045 3045 3043 3043
3028 3029 3031 3032 3033 3035 3036 3037 3038 3040 3041 3041 3042 3042 3042 3042 3042 3041 3041 3042 3042 3042 3041 3040 3039 3039 3039 3040 3039 3038 3038 3036 3036 3037 3037 3034 3036 3035 3036 3036 3034 3033 3032
3022 3023 3025 3027 3028 3030 3031 3031 3032 3033 3034 3034 3034 3034 3034 3034 3033 3032 3031 3031 3030 3033 3031 3030 3029 3027 3027 3027 3028 3028 3027 3026 3025 3023 3026 3025 3023 3024 3023 3024 3025 3024 3021